Location: T. Spence Memorial Observatory
(32.7356°N, 82.2098°W)
Time: 03:58:50
(UTC-04:00)

Daily predictions for brighter satellites

Satellite Brightness Start Highest point End
(mag) Time Altitude Azimuth Time Altitude Azimuth Time Altitude Azimuth
Nadezhda 4 Rocket 4.2 00:08:39 65° WNW 00:08:39 65° WNW 00:14:34 10° N
COSMOS 2406 3.8 00:09:28 54° NNW 00:09:28 54° NNW 00:14:14 10° NNE
USA 238 DEB 4.3 00:13:44 44° WSW 00:15:34 55° NW 00:22:30 10° NNE
USA 238 4.2 00:13:55 45° WSW 00:15:40 55° WNW 00:22:36 10° NNE
Terra 3.8 00:22:46 23° WNW 00:22:46 23° WNW 00:25:13 10° NW
CZ-4C R/B 3.9 00:26:52 24° NE 00:26:52 24° NE 00:29:12 10° NE
H-2A R/B 4.2 00:38:18 17° WNW 00:38:18 17° WNW 00:40:23 10° NW
Cosmos 1943 Rocket 3.8 00:43:25 10° NW 00:46:20 27° WNW 00:46:20 27° WNW
NOSS 3-2 (C) 4.3 00:51:59 45° NNE 00:51:59 45° NNE 00:56:22 10° NNE
Cosmos 2344 3.8 01:17:28 63° ENE 01:17:28 63° ENE 01:24:31 10° NE
CZ-2C R/B 4.3 01:13:19 10° NNE 01:16:07 28° NE 01:16:07 28° NE
Cosmos 1980 Rocket 4.1 01:53:54 10° NNE 01:58:04 21° ENE 01:58:50 20° ENE
USA 215 4.1 02:01:33 10° NE 02:05:59 40° E 02:05:59 40° E
CZ-4C R/B 4.3 02:12:00 18° NW 02:12:39 18° NW 02:16:34 10° N
Cosmos 2082 Rocket 3.4 02:14:28 37° NNW 02:14:28 37° NNW 02:18:17 10° N
Lacrosse 5 4.1 02:09:29 10° N 02:13:17 21° NE 02:14:59 18° ENE
Cosmos 1697 Rocket 3.7 02:13:23 10° N 02:17:38 44° NNE 02:17:38 44° NNE
Cosmos 1833 Rocket 3.8 02:23:37 40° NNW 02:23:37 40° NNW 02:27:30 10° N
CZ-2C R/B 4.2 02:30:16 41° NNW 02:30:16 41° NNW 02:33:53 10° NNW
BREEZE-M TANK 4.4 02:19:12 10° WSW 02:31:57 43° NW 02:35:33 10° NE
CENTAUR R/B 2.8 02:37:39 59° NNW 02:37:39 59° NNW 02:43:26 10° NNE
Aureole 1 Rocket 4.5 02:46:42 10° NNW 02:49:58 45° NNW 02:49:58 45° NNW
SL-16 R/B 4.1 02:55:13 10° N 02:59:50 25° ENE 03:03:59 12° ESE
Cosmos 2322 Rocket 3.6 03:07:14 10° N 03:12:19 34° ENE 03:15:23 20° ESE
Cosmos 1777 Rocket 4.4 03:14:31 60° ENE 03:14:31 60° ENE 03:19:04 10° NNE
CBERS-1 4.1 03:21:16 10° NNE 03:25:51 72° NNE 03:25:51 72° NNE
SL-08 R/B 3.6 03:27:42 64° NNE 03:27:42 64° NNE 03:31:55 10° N
Cosmos 1470 Rocket 4.5 03:31:57 44° N 03:31:57 44° N 03:35:03 10° N
Lacrosse 5 rocket 3.7 03:29:44 10° NNW 03:33:24 25° NE 03:37:10 10° E
ARIANE 5 R/B 3.4 03:30:03 10° NNE 03:34:46 39° E 03:35:28 37° ESE
Cosmos 1933 Rocket 4.5 03:36:33 42° NNW 03:36:33 42° NNW 03:39:37 10° N
ADEOS 3.4 03:33:23 10° NNE 03:38:38 83° ESE 03:38:40 83° ESE
Cosmos 1980 Rocket 3.1 03:36:53 10° NW 03:40:33 35° WNW 03:40:33 35° WNW
CZ-2D R/B 3.4 03:38:47 10° NE 03:43:30 33° E 03:45:19 26° SE
SL-16 R/B 3.8 03:38:36 10° SE 03:44:16 37° ENE 03:49:57 10° N
ERS-2 4.4 03:41:37 10° NNW 03:42:57 18° NNW 03:42:57 18° NNW
USA 215 4.2 03:44:45 10° NNE 03:50:41 39° NW 03:53:18 28° W
NPP 4.2 03:46:04 10° N 03:51:03 42° WNW 03:51:03 42° WNW
Lacrosse 5 3.1 03:51:34 10° NW 03:54:01 28° WNW 03:54:01 28° WNW
Cosmos 1709 Rocket 4.1 03:59:11 53° WSW 04:00:14 59° W 04:06:26 10° N
Meteor 1-4 Rocket 4.2 03:56:38 10° NNW 03:58:39 29° NNW 03:58:39 29° NNW
Meteor 2-10 4.3 03:59:28 10° NNW 04:04:30 50° W 04:04:30 50° W
Okean O Rocket 3.5 04:08:35 10° NE 04:12:14 25° E 04:14:56 14° SE
SEDSat Delta rocket 3.9 04:10:49 34° W 04:14:02 79° S 04:20:41 10° E
ATLAS 5 CENTAUR R/B 2.0 04:13:59 52° W 04:14:41 57° WNW 04:19:44 10° NNE
Cosmos 1862 Rocket 4.4 04:10:49 10° NNW 04:14:12 37° WNW 04:14:12 37° WNW
Cosmos 1455 3.6 04:11:46 10° NNW 04:13:56 28° NW 04:13:56 28° NW
H-2A R/B 3.3 04:14:58 31° W 04:18:01 84° S 04:49:29 10° E
Cosmos 1833 4.3 04:22:23 43° SW 04:24:10 66° WNW 04:29:54 10° NNE
Cosmos 304 Rocket 3.7 04:23:22 10° NNW 04:28:13 85° ENE 04:32:03 16° SSE
Cosmos 2221 Rocket 3.5 04:28:16 10° N 04:32:46 77° W 04:34:37 36° S
Cosmos 1626 4.3 04:34:40 15° WNW 04:34:40 15° WNW 04:36:04 10° NW
Cosmos 1869 Rocket 3.7 04:35:04 46° SW 04:35:57 56° W 04:40:18 10° N
Resurs 1-4 Rocket 2.1 04:31:18 10° N 04:36:37 70° WNW 04:39:02 33° SSW
Cosmos 2298 Rocket 4.0 04:35:52 35° SSW 04:38:12 80° WNW 04:43:34 10° NNE
UNKNOWN OBJECT B 2.6 04:35:45 10° N 04:39:35 84° WNW 04:40:48 43° SSW
SL-16 R/B 2.7 04:38:48 10° NW 04:43:58 37° WSW 04:45:43 30° SW
ISS -1.1 04:42:25 10° NNW 04:45:18 28° NE 04:48:09 10° E
CZ-2C R/B 4.4 04:43:01 10° SSE 04:47:21 54° ENE 04:51:46 10° N
SME Rocket 4.3 04:41:04 10° SSE 04:48:39 72° ENE 04:53:39 10° N
OAO 1 Rocket 4.4 04:45:01 16° W 04:49:15 69° SSW 04:54:35 10° ESE
Meteor 2-3 Rocket 3.8 04:45:05 18° S 04:49:29 85° E 04:55:18 10° N
UNK 3.7 04:47:01 25° S 04:49:35 59° W 04:54:06 10° NNW
USA 229 DEB 3.7 04:46:06 26° SW 04:50:14 77° WNW 04:57:15 10° NNE
USA 229 3.7 04:46:10 26° SW 04:50:21 77° WNW 04:57:21 10° NNE
OAO 3 Rocket 3.3 04:51:09 15° WNW 04:54:59 71° N 04:59:43 10° E
Cosmos 2322 Rocket 3.1 04:51:35 10° NW 04:56:08 26° WSW 04:57:05 24° WSW
Cosmos 1680 Rocket 3.9 04:53:19 10° NNW 04:58:09 40° WSW 05:01:25 19° SSW
SL-24 DEB 4.2 04:53:46 10° N 04:58:25 86° W 05:02:15 15° S
EO 1 Del DPAF 4.3 04:59:05 27° WSW 04:59:15 27° W 05:02:37 10° NW
ASTRO F (AKARI) 4.2 04:57:08 15° S 04:59:45 85° WSW 05:02:59 10° NNW
ATLAS CENTAUR R/B 3.5 04:57:04 10° N 05:01:11 32° NE 05:05:00 10° ESE
CZ-2D R/B 3.5 04:59:30 10° N 05:03:34 59° WNW 05:05:55 23° SSW
GOES 2 Rocket 3.8 05:03:19 24° SW 05:05:13 35° S 05:09:04 10° ESE
Coronas F rocket 3.8 05:04:45 10° SE 05:06:56 22° E 05:09:09 10° NE
Cosmos 1733 Rocket 3.1 05:05:03 12° S 05:09:06 82° E 05:13:28 10° N
GPS 2-05 Rocket1 3.5 05:06:56 15° WNW 05:09:30 49° N 05:12:52 10° ENE
Thor Agena Rocket 3.8 05:04:48 10° SSE 05:10:04 77° ENE 05:15:23 10° N
CZ-4B R/B 3.2 05:06:31 10° NNE 05:10:35 71° E 05:14:52 10° S
PSLV R/B 3.9 05:07:40 10° N 05:11:34 61° WNW 05:14:30 18° SSW
Lacrosse 5 rocket 2.0 05:08:37 10° NW 05:12:45 36° WSW 05:16:57 10° S
Cosmos 2154 Rocket 4.0 05:07:13 10° S 05:13:31 76° W 05:19:53 10° N
ARIANE 5 R/B 4.1 05:10:00 10° NNW 05:13:34 20° WNW 05:15:49 15° W
IRS-1C Rocket 4.3 05:08:25 10° N 05:13:34 56° WNW 05:17:49 15° SSW
Nadezhda 3 Rocket 4.0 05:09:14 10° N 05:15:25 84° E 05:21:34 10° S
Cosmos 220 Rocket 3.9 05:12:37 14° SSW 05:16:13 86° ESE 05:20:31 10° NNE
CZ-3A R/B 4.1 05:17:45 10° S 05:18:48 11° S 05:20:12 10° SSE
Sich 1 Rocket 4.0 05:16:00 10° S 05:20:20 63° E 05:24:41 10° NNE
Centaur D-1AR AC-48 3.8 05:05:58 10° W 05:21:59 36° SSW 05:26:33 10° SE
CZ-2D R/B 3.4 05:19:11 10° NNW 05:23:22 25° WNW 05:26:39 14° WSW
Cosmos 389 Rocket 2.5 05:20:15 10° N 05:23:57 82° W 05:27:37 10° S
Cosmos 1898 Rocket 4.3 05:20:37 17° SW 05:24:01 33° WNW 05:28:41 10° N
Cosmos 2227 Rocket 3.0 05:19:34 10° S 05:24:59 50° ESE 05:30:26 10° NNE
Cosmos 1782 3.9 05:22:06 10° N 05:25:59 47° E 05:29:50 10° SSE
Cosmos 2360 Rocket 2.5 05:21:43 10° NW 05:27:00 43° WSW 05:32:17 10° S
SL-16 R/B 3.4 05:22:39 10° SSW 05:27:51 29° W 05:33:09 10° NW
Cosmos 1125 Rocket 4.4 05:24:18 10° S 05:29:19 49° ESE 05:34:24 10° NNE
Cosmos 1356 Rocket 4.1 05:25:25 10° S 05:29:26 54° E 05:33:25 10° NNE
Cosmos 1937 Rocket 4.1 05:27:44 14° SW 05:32:02 41° WNW 05:37:02 10° N
Intercosmos 24 Rocket 4.3 05:29:01 10° S 05:33:20 88° W 05:36:55 10° N
CZ-4B R/B 3.5 05:28:54 10° N 05:34:13 53° WNW 05:39:36 10° SSW
Cosmos 2219 4.3 05:32:52 12° WSW 05:37:12 29° WNW 05:42:08 10° N
Okean 1-7 4.5 05:34:09 10° NW 05:37:20 20° W 05:40:23 10° SW
Cosmos 2333 4.4 05:33:11 10° NNW 05:38:52 80° ENE 05:44:33 10° SSE
Iridium 4 Rocket 3.6 05:35:12 10° N 05:39:24 60° E 05:43:29 10° SSE
Cosmos 2322 4.4 05:37:17 10° NW 05:42:17 32° WSW 05:47:16 10° SSW
Cosmos 1340 Rocket 2.8 05:38:52 10° SSW 05:42:53 65° W 05:46:54 10° N
Cosmos 1908 Rocket 3.6 05:39:08 10° S 05:43:34 88° E 05:47:59 10° N
Cosmos 1606 4.2 05:40:40 10° N 05:44:15 40° E 05:47:49 10° SSE
Meteor 2-10 Rocket 3.5 05:39:22 10° NNW 05:44:25 71° W 05:49:37 10° S
FALCON 9 R/B 0.5 05:43:06 10° WNW 05:45:16 76° NNE 05:48:43 10° E
Okean O Rocket 3.0 05:45:01 10° NNW 05:48:27 23° WNW 05:51:52 10° WSW
MOZ.5/SAFIR/RUBIN 5/SL-8 4.2 05:50:32 10° S 05:54:58 43° W 05:59:26 10° NNW
Cosmos 1674 Rocket 3.7 05:51:54 10° NNW 05:56:06 51° W 06:00:18 10° S
ADEOS II 2.4 05:52:17 10° NNE 05:57:33 73° ESE 06:02:47 10° S
